Wetterdaten: Sonntag, 17.05.2015
Datum Zeit Temp. Auen Feucht Auen Luftdruck Regen Richtung Richtung Windben
17.05.2015 00:00 13,1 C 85 % 1023,1 hPa 0,0 mm W-SW 252 0,0 km/h (0 Bft)
17.05.2015 00:05 13,0 C 87 % 1023,0 hPa 0,0 mm W-SW 252 0,0 km/h (0 Bft)
17.05.2015 00:10 12,8 C 87 % 1023,0 hPa 0,0 mm W-SW 252 0,0 km/h (0 Bft)
17.05.2015 00:15 12,9 C 87 % 1023,0 hPa 0,0 mm W-SW 252 0,0 km/h (0 Bft)
17.05.2015 00:20 12,9 C 86 % 1023,0 hPa 0,0 mm W-SW 252 0,0 km/h (0 Bft)
17.05.2015 00:25 13,1 C 86 % 1023,0 hPa 0,0 mm W-SW 252 0,0 km/h (0 Bft)
17.05.2015 00:30 13,2 C 86 % 1023,0 hPa 0,0 mm W-SW 252 0,0 km/h (0 Bft)
17.05.2015 00:35 13,2 C 86 % 1023,0 hPa 0,0 mm W-SW 252 0,0 km/h (0 Bft)
17.05.2015 00:40 13,2 C 87 % 1023,1 hPa 0,0 mm W-SW 252 1,6 km/h (1 Bft)
17.05.2015 00:45 13,5 C 84 % 1023,1 hPa 0,0 mm W-NW 289 8,0 km/h (2 Bft)
17.05.2015 00:50 14,2 C 79 % 1023,1 hPa 0,0 mm W-NW 288 4,8 km/h (1 Bft)
17.05.2015 00:55 14,8 C 75 % 1023,1 hPa 0,0 mm W-SW 252 9,7 km/h (2 Bft)
17.05.2015 01:00 15,1 C 74 % 1023,1 hPa 0,0 mm W 273 14,5 km/h (3 Bft)
17.05.2015 01:05 15,2 C 73 % 1023,1 hPa 0,0 mm W 279 9,7 km/h (2 Bft)
17.05.2015 01:10 15,3 C 73 % 1023,0 hPa 0,0 mm W 273 11,3 km/h (2 Bft)
17.05.2015 01:15 15,3 C 73 % 1023,0 hPa 0,0 mm W 263 8,0 km/h (2 Bft)
17.05.2015 01:20 15,3 C 72 % 1023,1 hPa 0,0 mm W 269 11,3 km/h (2 Bft)
17.05.2015 01:25 15,3 C 73 % 1023,1 hPa 0,0 mm W-SW 256 9,7 km/h (2 Bft)
17.05.2015 01:30 15,2 C 73 % 1023,0 hPa 0,0 mm W 268 9,7 km/h (2 Bft)
17.05.2015 01:35 15,2 C 73 % 1023,1 hPa 0,0 mm W 270 8,0 km/h (2 Bft)
17.05.2015 01:40 15,2 C 74 % 1023,0 hPa 0,0 mm W 263 8,0 km/h (2 Bft)
17.05.2015 01:45 15,1 C 76 % 1023,0 hPa 0,0 mm W-SW 255 11,3 km/h (2 Bft)
17.05.2015 01:50 14,9 C 77 % 1023,1 hPa 0,0 mm W-SW 252 12,9 km/h (3 Bft)
17.05.2015 01:55 14,9 C 76 % 1023,1 hPa 0,0 mm W 277 11,3 km/h (2 Bft)
17.05.2015 02:00 14,8 C 76 % 1023,1 hPa 0,0 mm W-SW 246 11,3 km/h (2 Bft)
17.05.2015 02:05 14,8 C 75 % 1023,1 hPa 0,0 mm W 276 12,9 km/h (3 Bft)
17.05.2015 02:10 14,8 C 75 % 1023,1 hPa 0,0 mm W 261 12,9 km/h (3 Bft)
17.05.2015 02:15 14,8 C 76 % 1023,1 hPa 0,0 mm W 266 8,0 km/h (2 Bft)
17.05.2015 02:20 14,7 C 76 % 1023,0 hPa 0,0 mm W 278 6,4 km/h (2 Bft)
17.05.2015 02:25 14,6 C 77 % 1023,1 hPa 0,0 mm W 269 6,4 km/h (2 Bft)
17.05.2015 02:30 14,6 C 77 % 1023,1 hPa 0,0 mm W 274 6,4 km/h (2 Bft)
17.05.2015 02:35 14,5 C 78 % 1023,0 hPa 0,0 mm W 274 1,6 km/h (1 Bft)
17.05.2015 02:40 14,4 C 78 % 1023,1 hPa 0,0 mm W 274 3,2 km/h (1 Bft)
17.05.2015 02:45 14,3 C 79 % 1023,0 hPa 0,0 mm W 267 4,8 km/h (1 Bft)
17.05.2015 02:50 14,3 C 79 % 1023,0 hPa 0,0 mm W 263 4,8 km/h (1 Bft)
17.05.2015 02:55 14,2 C 79 % 1023,1 hPa 0,0 mm W-SW 256 6,4 km/h (2 Bft)
17.05.2015 03:00 14,2 C 78 % 1023,1 hPa 0,0 mm W-SW 257 4,8 km/h (1 Bft)
17.05.2015 03:05 14,2 C 77 % 1023,1 hPa 0,0 mm W 268 6,4 km/h (2 Bft)
17.05.2015 03:10 14,2 C 77 % 1023,1 hPa 0,0 mm W 271 4,8 km/h (1 Bft)
17.05.2015 03:15 14,2 C 76 % 1023,1 hPa 0,0 mm W 271 4,8 km/h (1 Bft)
17.05.2015 03:20 14,2 C 76 % 1023,1 hPa 0,0 mm W 271 3,2 km/h (1 Bft)
17.05.2015 03:25 14,1 C 76 % 1023,1 hPa 0,0 mm W 263 4,8 km/h (1 Bft)
17.05.2015 03:30 14,1 C 76 % 1023,1 hPa 0,0 mm W 263 3,2 km/h (1 Bft)
17.05.2015 03:35 14,1 C 77 % 1023,0 hPa 0,0 mm W 263 1,6 km/h (1 Bft)
17.05.2015 03:40 14,0 C 77 % 1023,1 hPa 0,0 mm W 263 3,2 km/h (1 Bft)
17.05.2015 03:45 14,0 C 78 % 1023,2 hPa 0,0 mm W 263 3,2 km/h (1 Bft)
17.05.2015 03:50 13,9 C 79 % 1023,1 hPa 0,0 mm W 263 1,6 km/h (1 Bft)
17.05.2015 03:55 13,9 C 78 % 1023,1 hPa 0,0 mm W 263 1,6 km/h (1 Bft)
17.05.2015 04:00 13,8 C 79 % 1023,2 hPa 0,0 mm W 263 1,6 km/h (1 Bft)
17.05.2015 04:05 13,8 C 79 % 1023,2 hPa 0,0 mm W 263 1,6 km/h (1 Bft)
17.05.2015 04:10 13,6 C 81 % 1023,2 hPa 0,0 mm W 263 1,6 km/h (1 Bft)
17.05.2015 04:15 13,6 C 81 % 1023,2 hPa 0,0 mm W 263 0,0 km/h (0 Bft)
17.05.2015 04:20 13,5 C 82 % 1023,2 hPa 0,0 mm W 263 0,0 km/h (0 Bft)
17.05.2015 04:25 13,6 C 81 % 1023,2 hPa 0,0 mm W 263 1,6 km/h (1 Bft)
17.05.2015 04:30 13,7 C 80 % 1023,1 hPa 0,0 mm W 267 8,0 km/h (2 Bft)
17.05.2015 04:35 13,8 C 79 % 1023,1 hPa 0,0 mm W 275 4,8 km/h (1 Bft)
17.05.2015 04:40 13,8 C 79 % 1023,2 hPa 0,0 mm W 275 3,2 km/h (1 Bft)
17.05.2015 04:45 13,9 C 78 % 1023,2 hPa 0,0 mm W 275 4,8 km/h (1 Bft)
17.05.2015 04:50 13,9 C 78 % 1023,2 hPa 0,0 mm W-NW 290 6,4 km/h (2 Bft)
17.05.2015 04:55 13,9 C 77 % 1023,2 hPa 0,0 mm W 265 6,4 km/h (2 Bft)
17.05.2015 05:00 13,8 C 78 % 1023,3 hPa 0,0 mm W 281 8,0 km/h (2 Bft)
17.05.2015 05:05 13,8 C 77 % 1023,2 hPa 0,0 mm W 280 8,0 km/h (2 Bft)
17.05.2015 05:10 13,8 C 78 % 1023,3 hPa 0,0 mm W-NW 284 9,7 km/h (2 Bft)
17.05.2015 05:15 13,6 C 78 % 1023,3 hPa 0,0 mm W-NW 297 9,7 km/h (2 Bft)
17.05.2015 05:20 13,5 C 79 % 1023,2 hPa 0,0 mm W-NW 303 9,7 km/h (2 Bft)
17.05.2015 05:25 13,4 C 80 % 1023,3 hPa 0,0 mm W-NW 296 6,4 km/h (2 Bft)
17.05.2015 05:30 13,4 C 79 % 1023,3 hPa 0,0 mm W 275 6,4 km/h (2 Bft)
17.05.2015 05:35 13,4 C 79 % 1023,4 hPa 0,0 mm W-NW 285 4,8 km/h (1 Bft)
17.05.2015 05:40 13,4 C 80 % 1023,4 hPa 0,0 mm W-NW 284 4,8 km/h (1 Bft)
17.05.2015 05:45 13,4 C 80 % 1023,4 hPa 0,0 mm W-NW 284 4,8 km/h (1 Bft)
17.05.2015 05:50 13,3 C 80 % 1023,5 hPa 0,0 mm W-NW 284 1,6 km/h (1 Bft)
17.05.2015 05:55 13,3 C 81 % 1023,5 hPa 0,0 mm W 275 4,8 km/h (1 Bft)
17.05.2015 06:00 13,3 C 80 % 1023,5 hPa 0,0 mm W 275 3,2 km/h (1 Bft)
17.05.2015 06:05 13,3 C 80 % 1023,5 hPa 0,0 mm W 275 3,2 km/h (1 Bft)
17.05.2015 06:10 13,3 C 80 % 1023,6 hPa 0,0 mm W 275 3,2 km/h (1 Bft)
17.05.2015 06:15 13,3 C 80 % 1023,7 hPa 0,0 mm W-NW 287 6,4 km/h (2 Bft)
17.05.2015 06:20 13,4 C 80 % 1023,7 hPa 0,0 mm W-NW 286 4,8 km/h (1 Bft)
17.05.2015 06:25 13,4 C 80 % 1023,7 hPa 0,0 mm W-NW 286 6,4 km/h (2 Bft)
17.05.2015 06:30 13,4 C 81 % 1023,7 hPa 0,0 mm W-NW 286 3,2 km/h (1 Bft)
17.05.2015 06:35 13,4 C 81 % 1023,7 hPa 0,0 mm W-NW 286 4,8 km/h (1 Bft)
17.05.2015 06:40 13,4 C 80 % 1023,7 hPa 0,0 mm W 265 4,8 km/h (1 Bft)
17.05.2015 06:45 13,5 C 80 % 1023,7 hPa 0,0 mm W 265 3,2 km/h (1 Bft)
17.05.2015 06:50 13,5 C 80 % 1023,7 hPa 0,0 mm W 268 4,8 km/h (1 Bft)
17.05.2015 06:55 13,5 C 79 % 1023,7 hPa 0,0 mm W 269 4,8 km/h (1 Bft)
17.05.2015 07:00 13,5 C 79 % 1023,7 hPa 0,0 mm W 265 4,8 km/h (1 Bft)
17.05.2015 07:05 13,5 C 79 % 1023,7 hPa 0,0 mm W 261 6,4 km/h (2 Bft)
17.05.2015 07:10 13,5 C 79 % 1023,7 hPa 0,0 mm W-NW 285 6,4 km/h (2 Bft)
17.05.2015 07:15 13,5 C 79 % 1023,7 hPa 0,0 mm W-NW 285 3,2 km/h (1 Bft)
17.05.2015 07:20 13,4 C 79 % 1023,8 hPa 0,0 mm W-NW 288 4,8 km/h (1 Bft)
17.05.2015 07:25 13,4 C 79 % 1023,8 hPa 0,0 mm W-NW 284 3,2 km/h (1 Bft)
17.05.2015 07:30 13,4 C 80 % 1023,9 hPa 0,0 mm W-NW 284 4,8 km/h (1 Bft)
17.05.2015 07:35 13,4 C 80 % 1024,0 hPa 0,0 mm W-SW 257 4,8 km/h (1 Bft)
17.05.2015 07:40 13,3 C 81 % 1024,0 hPa 0,0 mm W 261 8,0 km/h (2 Bft)
17.05.2015 07:45 13,1 C 83 % 1024,1 hPa 0,0 mm W 265 12,9 km/h (3 Bft)
17.05.2015 07:50 12,8 C 85 % 1024,3 hPa 0,2 mm W 259 12,9 km/h (3 Bft)
17.05.2015 07:55 12,5 C 86 % 1024,3 hPa 0,0 mm W 274 17,7 km/h (3 Bft)
17.05.2015 08:00 12,3 C 87 % 1024,3 hPa 0,0 mm W-NW 296 8,0 km/h (2 Bft)
17.05.2015 08:05 12,2 C 88 % 1024,3 hPa 0,2 mm W 272 6,4 km/h (2 Bft)
17.05.2015 08:10 12,2 C 89 % 1024,4 hPa 0,0 mm W 272 3,2 km/h (1 Bft)
17.05.2015 08:15 12,2 C 89 % 1024,4 hPa 0,0 mm W 271 0,0 km/h (0 Bft)
17.05.2015 08:20 12,2 C 89 % 1024,3 hPa 0,0 mm W 271 3,2 km/h (1 Bft)
17.05.2015 08:25 12,2 C 90 % 1024,3 hPa 0,0 mm W 272 3,2 km/h (1 Bft)
17.05.2015 08:30 12,3 C 90 % 1024,3 hPa 0,0 mm W 272 1,6 km/h (1 Bft)
17.05.2015 08:35 12,4 C 90 % 1024,3 hPa 0,0 mm W 271 1,6 km/h (1 Bft)
17.05.2015 08:40 12,5 C 90 % 1024,3 hPa 0,0 mm W 272 1,6 km/h (1 Bft)
17.05.2015 08:45 12,6 C 90 % 1024,4 hPa 0,0 mm W 261 4,8 km/h (1 Bft)
17.05.2015 08:50 12,6 C 90 % 1024,4 hPa 0,0 mm W-SW 257 4,8 km/h (1 Bft)
17.05.2015 08:55 12,6 C 89 % 1024,4 hPa 0,0 mm W-NW 286 8,0 km/h (2 Bft)
17.05.2015 09:00 12,6 C 89 % 1024,5 hPa 0,0 mm W-NW 289 8,0 km/h (2 Bft)
17.05.2015 09:05 12,6 C 89 % 1024,4 hPa 0,0 mm W-NW 296 6,4 km/h (2 Bft)
17.05.2015 09:10 12,6 C 89 % 1024,6 hPa 0,0 mm W 260 6,4 km/h (2 Bft)
17.05.2015 09:15 12,6 C 89 % 1024,5 hPa 0,0 mm W 263 9,7 km/h (2 Bft)
17.05.2015 09:20 12,6 C 89 % 1024,6 hPa 0,0 mm W-NW 284 6,4 km/h (2 Bft)
17.05.2015 09:25 12,6 C 89 % 1024,5 hPa 0,0 mm W 267 9,7 km/h (2 Bft)
17.05.2015 09:30 12,7 C 89 % 1024,4 hPa 0,0 mm W 267 8,0 km/h (2 Bft)
17.05.2015 09:35 12,8 C 89 % 1024,4 hPa 0,0 mm W-NW 286 4,8 km/h (1 Bft)
17.05.2015 09:40 12,9 C 88 % 1024,4 hPa 0,0 mm W-SW 255 6,4 km/h (2 Bft)
17.05.2015 09:45 12,9 C 87 % 1024,4 hPa 0,0 mm W 269 6,4 km/h (2 Bft)
17.05.2015 09:50 12,9 C 87 % 1024,4 hPa 0,0 mm W 264 4,8 km/h (1 Bft)
17.05.2015 09:55 13,0 C 87 % 1024,4 hPa 0,0 mm W 266 6,4 km/h (2 Bft)
17.05.2015 10:00 13,0 C 87 % 1024,4 hPa 0,0 mm W 275 4,8 km/h (1 Bft)
17.05.2015 10:05 12,9 C 86 % 1024,3 hPa 0,0 mm W 275 3,2 km/h (1 Bft)
17.05.2015 10:10 13,0 C 86 % 1024,4 hPa 0,0 mm W 275 4,8 km/h (1 Bft)
17.05.2015 10:15 13,1 C 86 % 1024,4 hPa 0,0 mm W 275 3,2 km/h (1 Bft)
17.05.2015 10:20 13,2 C 86 % 1024,4 hPa 0,0 mm W 273 3,2 km/h (1 Bft)
17.05.2015 10:25 13,3 C 86 % 1024,6 hPa 0,0 mm W 274 4,8 km/h (1 Bft)
17.05.2015 10:30 13,2 C 85 % 1024,5 hPa 0,0 mm W 277 6,4 km/h (2 Bft)
17.05.2015 10:35 13,3 C 84 % 1024,4 hPa 0,0 mm W-NW 292 3,2 km/h (1 Bft)
17.05.2015 10:40 13,1 C 86 % 1024,4 hPa 0,0 mm W-NW 292 1,6 km/h (1 Bft)
17.05.2015 10:45 13,4 C 85 % 1024,4 hPa 0,0 mm W-NW 289 4,8 km/h (1 Bft)
17.05.2015 10:50 13,5 C 84 % 1024,4 hPa 0,0 mm W-SW 250 4,8 km/h (1 Bft)
17.05.2015 10:55 13,3 C 83 % 1024,4 hPa 0,0 mm W 267 8,0 km/h (2 Bft)
17.05.2015 11:00 13,2 C 83 % 1024,5 hPa 0,0 mm W 263 8,0 km/h (2 Bft)
17.05.2015 11:05 13,1 C 84 % 1024,5 hPa 0,0 mm W-SW 252 6,4 km/h (2 Bft)
17.05.2015 11:10 13,2 C 84 % 1024,5 hPa 0,0 mm W-SW 257 6,4 km/h (2 Bft)
17.05.2015 11:15 13,2 C 85 % 1024,5 hPa 0,0 mm W-SW 254 8,0 km/h (2 Bft)
17.05.2015 11:20 13,1 C 85 % 1024,4 hPa 0,0 mm W 265 6,4 km/h (2 Bft)
17.05.2015 11:25 13,1 C 86 % 1024,5 hPa 0,0 mm W 273 6,4 km/h (2 Bft)
17.05.2015 11:30 13,0 C 86 % 1024,4 hPa 0,0 mm W 271 6,4 km/h (2 Bft)
17.05.2015 11:35 12,9 C 86 % 1024,4 hPa 0,0 mm W-SW 256 8,0 km/h (2 Bft)
17.05.2015 11:40 12,7 C 86 % 1024,5 hPa 0,0 mm W 271 11,3 km/h (2 Bft)
17.05.2015 11:45 12,6 C 86 % 1024,6 hPa 0,0 mm W 267 8,0 km/h (2 Bft)
17.05.2015 11:50 12,6 C 85 % 1024,6 hPa 0,0 mm W 259 9,7 km/h (2 Bft)
17.05.2015 11:55 12,6 C 86 % 1024,6 hPa 0,0 mm W 260 6,4 km/h (2 Bft)
17.05.2015 12:00 12,6 C 85 % 1024,6 hPa 0,0 mm W 276 11,3 km/h (2 Bft)
17.05.2015 12:05 12,7 C 86 % 1024,6 hPa 0,0 mm W 272 6,4 km/h (2 Bft)
17.05.2015 12:10 12,7 C 85 % 1024,6 hPa 0,0 mm W 270 9,7 km/h (2 Bft)
17.05.2015 12:15 12,6 C 85 % 1024,7 hPa 0,0 mm W 263 9,7 km/h (2 Bft)
17.05.2015 12:20 12,4 C 85 % 1024,7 hPa 0,0 mm W 260 6,4 km/h (2 Bft)
17.05.2015 12:25 12,4 C 85 % 1024,7 hPa 0,0 mm W-SW 257 8,0 km/h (2 Bft)
17.05.2015 12:30 12,3 C 86 % 1024,7 hPa 0,0 mm W-SW 257 3,2 km/h (1 Bft)
17.05.2015 12:35 12,4 C 86 % 1024,6 hPa 0,0 mm W 260 4,8 km/h (1 Bft)
17.05.2015 12:40 12,6 C 85 % 1024,6 hPa 0,0 mm W 259 4,8 km/h (1 Bft)
17.05.2015 12:45 12,5 C 84 % 1024,6 hPa 0,0 mm W 279 8,0 km/h (2 Bft)
17.05.2015 12:50 12,4 C 85 % 1024,6 hPa 0,0 mm W-NW 285 6,4 km/h (2 Bft)
17.05.2015 12:55 12,6 C 85 % 1024,6 hPa 0,0 mm W 273 8,0 km/h (2 Bft)
17.05.2015 13:00 12,6 C 85 % 1024,6 hPa 0,0 mm W-NW 286 6,4 km/h (2 Bft)
17.05.2015 13:05 12,7 C 85 % 1024,6 hPa 0,0 mm W-NW 286 6,4 km/h (2 Bft)
17.05.2015 13:10 12,7 C 84 % 1024,6 hPa 0,0 mm W-NW 286 1,6 km/h (1 Bft)
17.05.2015 13:15 12,8 C 83 % 1024,6 hPa 0,0 mm W-NW 282 6,4 km/h (2 Bft)
17.05.2015 13:20 12,7 C 83 % 1024,5 hPa 0,0 mm W 264 6,4 km/h (2 Bft)
17.05.2015 13:25 12,8 C 83 % 1024,6 hPa 0,0 mm W 263 6,4 km/h (2 Bft)
17.05.2015 13:30 12,7 C 84 % 1024,5 hPa 0,0 mm W-NW 282 8,0 km/h (2 Bft)
17.05.2015 13:35 12,8 C 85 % 1024,5 hPa 0,0 mm W-NW 282 4,8 km/h (1 Bft)
17.05.2015 13:40 12,7 C 84 % 1024,4 hPa 0,0 mm W-NW 282 4,8 km/h (1 Bft)
17.05.2015 13:45 13,0 C 85 % 1024,3 hPa 0,0 mm W 277 4,8 km/h (1 Bft)
17.05.2015 13:50 13,7 C 82 % 1024,3 hPa 0,0 mm W 272 6,4 km/h (2 Bft)
17.05.2015 13:55 13,6 C 80 % 1024,2 hPa 0,0 mm SW 225 4,8 km/h (1 Bft)
17.05.2015 14:00 13,7 C 82 % 1024,1 hPa 0,0 mm W 267 4,8 km/h (1 Bft)
17.05.2015 14:05 14,3 C 79 % 1024,1 hPa 0,0 mm W-NW 285 6,4 km/h (2 Bft)
17.05.2015 14:10 13,7 C 76 % 1024,0 hPa 0,0 mm W-SW 250 3,2 km/h (1 Bft)
17.05.2015 14:15 14,6 C 77 % 1023,9 hPa 0,0 mm W-SW 254 8,0 km/h (2 Bft)
17.05.2015 14:20 14,9 C 75 % 1023,9 hPa 0,0 mm W 271 6,4 km/h (2 Bft)
17.05.2015 14:25 15,0 C 75 % 1023,8 hPa 0,0 mm W 273 4,8 km/h (1 Bft)
17.05.2015 14:30 15,2 C 75 % 1023,8 hPa 0,0 mm W 263 9,7 km/h (2 Bft)
17.05.2015 14:35 15,3 C 73 % 1023,7 hPa 0,0 mm W 272 8,0 km/h (2 Bft)
17.05.2015 14:40 14,9 C 75 % 1023,7 hPa 0,0 mm SW 236 8,0 km/h (2 Bft)
17.05.2015 14:45 15,1 C 73 % 1023,6 hPa 0,0 mm W-NW 292 8,0 km/h (2 Bft)
17.05.2015 14:50 15,0 C 77 % 1023,6 hPa 0,0 mm N-NW 337 4,8 km/h (1 Bft)
17.05.2015 14:55 15,4 C 74 % 1023,5 hPa 0,0 mm W 279 6,4 km/h (2 Bft)
17.05.2015 15:00 15,7 C 74 % 1023,4 hPa 0,0 mm W 281 8,0 km/h (2 Bft)
17.05.2015 15:05 16,1 C 73 % 1023,4 hPa 0,0 mm W-NW 287 4,8 km/h (1 Bft)
17.05.2015 15:10 16,4 C 71 % 1023,4 hPa 0,0 mm W 260 11,3 km/h (2 Bft)
17.05.2015 15:15 16,9 C 70 % 1023,3 hPa 0,0 mm W 265 9,7 km/h (2 Bft)
17.05.2015 15:20 17,1 C 67 % 1023,2 hPa 0,0 mm W-SW 240 14,5 km/h (3 Bft)
17.05.2015 15:25 16,7 C 69 % 1023,2 hPa 0,0 mm W 268 8,0 km/h (2 Bft)
17.05.2015 15:30 16,3 C 70 % 1023,1 hPa 0,0 mm W-NW 287 8,0 km/h (2 Bft)
17.05.2015 15:35 16,2 C 71 % 1023,0 hPa 0,0 mm W 279 8,0 km/h (2 Bft)
17.05.2015 15:40 16,2 C 72 % 1022,9 hPa 0,0 mm W-NW 293 8,0 km/h (2 Bft)
17.05.2015 15:45 16,4 C 70 % 1022,9 hPa 0,0 mm W 275 12,9 km/h (3 Bft)
17.05.2015 15:50 16,4 C 70 % 1022,8 hPa 0,0 mm NW 316 8,0 km/h (2 Bft)
17.05.2015 15:55 16,1 C 70 % 1022,7 hPa 0,0 mm W 279 8,0 km/h (2 Bft)
17.05.2015 16:00 16,0 C 71 % 1022,7 hPa 0,0 mm W 259 8,0 km/h (2 Bft)
17.05.2015 16:05 15,7 C 73 % 1022,7 hPa 0,0 mm W-SW 257 6,4 km/h (2 Bft)
17.05.2015 16:10 15,7 C 71 % 1022,6 hPa 0,0 mm W-SW 255 8,0 km/h (2 Bft)
17.05.2015 16:15 15,7 C 71 % 1022,6 hPa 0,0 mm SW 234 6,4 km/h (2 Bft)
17.05.2015 16:20 15,4 C 74 % 1022,6 hPa 0,0 mm W-NW 286 3,2 km/h (1 Bft)
17.05.2015 16:25 16,1 C 74 % 1022,4 hPa 0,0 mm W-NW 290 4,8 km/h (1 Bft)
17.05.2015 16:30 15,8 C 71 % 1022,3 hPa 0,0 mm W 266 6,4 km/h (2 Bft)
17.05.2015 16:35 15,9 C 73 % 1022,3 hPa 0,0 mm W 266 3,2 km/h (1 Bft)
17.05.2015 16:40 15,3 C 73 % 1022,1 hPa 0,0 mm W 266 3,2 km/h (1 Bft)
17.05.2015 16:45 15,2 C 75 % 1022,2 hPa 0,0 mm S-SW 212 3,2 km/h (1 Bft)
17.05.2015 16:50 15,6 C 73 % 1022,1 hPa 0,0 mm SW 229 3,2 km/h (1 Bft)
17.05.2015 16:55 16,0 C 71 % 1022,1 hPa 0,0 mm W-SW 258 3,2 km/h (1 Bft)
17.05.2015 17:00 16,4 C 70 % 1022,0 hPa 0,0 mm W 269 6,4 km/h (2 Bft)
17.05.2015 17:05 16,1 C 71 % 1022,1 hPa 0,0 mm W 272 4,8 km/h (1 Bft)
17.05.2015 17:10 16,0 C 72 % 1022,1 hPa 0,0 mm W 273 3,2 km/h (1 Bft)
17.05.2015 17:15 16,2 C 72 % 1022,1 hPa 0,0 mm W 279 4,8 km/h (1 Bft)
17.05.2015 17:20 16,3 C 71 % 1022,0 hPa 0,0 mm W 266 6,4 km/h (2 Bft)
17.05.2015 17:25 16,3 C 69 % 1022,1 hPa 0,0 mm W 266 4,8 km/h (1 Bft)
17.05.2015 17:30 15,9 C 72 % 1022,0 hPa 0,0 mm S-SO 167 4,8 km/h (1 Bft)
17.05.2015 17:35 16,1 C 73 % 1022,0 hPa 0,0 mm SW 215 1,6 km/h (1 Bft)
17.05.2015 17:40 16,1 C 70 % 1021,9 hPa 0,0 mm SW 219 1,6 km/h (1 Bft)
17.05.2015 17:45 16,0 C 69 % 1021,9 hPa 0,0 mm W-SW 257 4,8 km/h (1 Bft)
17.05.2015 17:50 16,4 C 70 % 1021,7 hPa 0,0 mm W 275 4,8 km/h (1 Bft)
17.05.2015 17:55 16,6 C 69 % 1021,7 hPa 0,0 mm W 269 4,8 km/h (1 Bft)
17.05.2015 18:00 16,5 C 69 % 1021,7 hPa 0,0 mm W 272 8,0 km/h (2 Bft)
17.05.2015 18:05 16,4 C 68 % 1021,6 hPa 0,0 mm W 271 6,4 km/h (2 Bft)
17.05.2015 18:10 16,2 C 71 % 1021,6 hPa 0,0 mm W 271 3,2 km/h (1 Bft)
17.05.2015 18:15 16,2 C 72 % 1021,6 hPa 0,0 mm W 271 3,2 km/h (1 Bft)
17.05.2015 18:20 16,3 C 70 % 1021,6 hPa 0,0 mm W 273 3,2 km/h (1 Bft)
17.05.2015 18:25 16,1 C 71 % 1021,5 hPa 0,0 mm W 273 1,6 km/h (1 Bft)
17.05.2015 18:30 16,1 C 71 % 1021,4 hPa 0,0 mm W 273 3,2 km/h (1 Bft)
17.05.2015 18:35 15,9 C 71 % 1021,5 hPa 0,0 mm W 271 1,6 km/h (1 Bft)
17.05.2015 18:40 15,6 C 73 % 1021,5 hPa 0,0 mm S-SO 165 3,2 km/h (1 Bft)
17.05.2015 18:45 15,5 C 73 % 1021,4 hPa 0,0 mm S-SO 165 1,6 km/h (1 Bft)
17.05.2015 18:50 15,4 C 74 % 1021,4 hPa 0,0 mm S-SO 165 0,0 km/h (0 Bft)
17.05.2015 18:55 15,6 C 73 % 1021,4 hPa 0,0 mm S-SO 165 0,0 km/h (0 Bft)
17.05.2015 19:00 15,8 C 72 % 1021,4 hPa 0,0 mm S 169 1,6 km/h (1 Bft)
17.05.2015 19:05 15,7 C 71 % 1021,4 hPa 0,0 mm S 169 0,0 km/h (0 Bft)
17.05.2015 19:10 15,7 C 72 % 1021,3 hPa 0,0 mm S 169 1,6 km/h (1 Bft)
17.05.2015 19:15 15,6 C 72 % 1021,4 hPa 0,0 mm S 169 0,0 km/h (0 Bft)
17.05.2015 19:20 15,4 C 76 % 1021,3 hPa 0,0 mm S 169 1,6 km/h (1 Bft)
17.05.2015 19:25 15,2 C 75 % 1021,3 hPa 0,0 mm O-NO 59 4,8 km/h (1 Bft)
17.05.2015 19:30 14,9 C 75 % 1021,3 hPa 0,0 mm O-NO 59 1,6 km/h (1 Bft)
17.05.2015 19:35 14,8 C 78 % 1021,3 hPa 0,0 mm S-SO 163 3,2 km/h (1 Bft)
17.05.2015 19:40 14,5 C 80 % 1021,3 hPa 0,0 mm S-SO 163 1,6 km/h (1 Bft)
17.05.2015 19:45 14,2 C 82 % 1021,3 hPa 0,0 mm S-SO 163 1,6 km/h (1 Bft)
17.05.2015 19:50 13,8 C 83 % 1021,2 hPa 0,0 mm S-SO 163 1,6 km/h (1 Bft)
17.05.2015 19:55 13,4 C 85 % 1021,3 hPa 0,0 mm S-SO 163 0,0 km/h (0 Bft)
17.05.2015 20:00 13,2 C 86 % 1021,3 hPa 0,0 mm S-SO 163 0,0 km/h (0 Bft)
17.05.2015 20:05 13,1 C 87 % 1021,3 hPa 0,0 mm S-SO 163 0,0 km/h (0 Bft)
17.05.2015 20:10 13,0 C 87 % 1021,3 hPa 0,0 mm S-SO 163 0,0 km/h (0 Bft)
17.05.2015 20:15 12,9 C 86 % 1021,4 hPa 0,0 mm S-SO 163 0,0 km/h (0 Bft)
17.05.2015 20:20 12,8 C 87 % 1021,4 hPa 0,0 mm S-SO 163 0,0 km/h (0 Bft)
17.05.2015 20:25 12,6 C 87 % 1021,5 hPa 0,0 mm S-SO 163 0,0 km/h (0 Bft)
17.05.2015 20:30 12,3 C 88 % 1021,5 hPa 0,0 mm S-SO 163 0,0 km/h (0 Bft)
17.05.2015 20:35 12,5 C 89 % 1021,5 hPa 0,0 mm S-SO 163 0,0 km/h (0 Bft)
17.05.2015 20:40 12,6 C 89 % 1021,5 hPa 0,0 mm S-SO 163 0,0 km/h (0 Bft)
17.05.2015 20:45 12,7 C 88 % 1021,5 hPa 0,0 mm S-SO 163 0,0 km/h (0 Bft)
17.05.2015 20:50 12,9 C 88 % 1021,4 hPa 0,0 mm S-SO 163 1,6 km/h (1 Bft)
17.05.2015 20:55 12,9 C 88 % 1021,6 hPa 0,0 mm S-SO 163 0,0 km/h (0 Bft)
17.05.2015 21:00 12,9 C 87 % 1021,5 hPa 0,0 mm S-SO 163 0,0 km/h (0 Bft)
17.05.2015 21:05 12,8 C 88 % 1021,6 hPa 0,0 mm S-SO 163 0,0 km/h (0 Bft)
17.05.2015 21:10 12,7 C 89 % 1021,7 hPa 0,0 mm S-SO 163 0,0 km/h (0 Bft)
17.05.2015 21:15 12,7 C 90 % 1021,7 hPa 0,0 mm S-SO 163 0,0 km/h (0 Bft)
17.05.2015 21:20 12,6 C 90 % 1021,7 hPa 0,0 mm S-SO 163 0,0 km/h (0 Bft)
17.05.2015 21:25 12,5 C 90 % 1021,7 hPa 0,0 mm S-SO 163 0,0 km/h (0 Bft)
17.05.2015 21:30 12,5 C 90 % 1021,7 hPa 0,0 mm S-SO 163 0,0 km/h (0 Bft)
17.05.2015 21:35 12,6 C 90 % 1021,8 hPa 0,0 mm S-SO 163 0,0 km/h (0 Bft)
17.05.2015 21:40 12,6 C 90 % 1021,7 hPa 0,0 mm S-SO 163 0,0 km/h (0 Bft)
17.05.2015 21:45 12,5 C 90 % 1021,7 hPa 0,0 mm S-SO 163 3,2 km/h (1 Bft)
17.05.2015 21:50 12,6 C 90 % 1021,7 hPa 0,0 mm S-SO 163 0,0 km/h (0 Bft)
17.05.2015 21:55 12,4 C 90 % 1021,7 hPa 0,0 mm S-SO 163 0,0 km/h (0 Bft)
17.05.2015 22:00 12,3 C 91 % 1021,7 hPa 0,0 mm S-SO 163 0,0 km/h (0 Bft)
17.05.2015 22:05 12,2 C 91 % 1021,6 hPa 0,0 mm S-SO 163 0,0 km/h (0 Bft)
17.05.2015 22:10 12,2 C 91 % 1021,7 hPa 0,0 mm S-SO 163 0,0 km/h (0 Bft)
17.05.2015 22:15 12,3 C 90 % 1021,6 hPa 0,0 mm S-SO 163 0,0 km/h (0 Bft)
17.05.2015 22:20 12,3 C 90 % 1021,6 hPa 0,0 mm S-SO 163 0,0 km/h (0 Bft)
17.05.2015 22:25 12,3 C 90 % 1021,6 hPa 0,0 mm S-SO 163 0,0 km/h (0 Bft)
17.05.2015 22:30 12,1 C 91 % 1021,6 hPa 0,0 mm S-SO 163 0,0 km/h (0 Bft)
17.05.2015 22:35 12,1 C 91 % 1021,6 hPa 0,0 mm S-SO 163 0,0 km/h (0 Bft)
17.05.2015 22:40 12,1 C 91 % 1021,5 hPa 0,0 mm S-SO 163 0,0 km/h (0 Bft)
17.05.2015 22:45 11,9 C 91 % 1021,5 hPa 0,0 mm S-SO 163 0,0 km/h (0 Bft)
17.05.2015 22:50 11,8 C 91 % 1021,4 hPa 0,0 mm S-SO 163 0,0 km/h (0 Bft)
17.05.2015 22:55 11,8 C 91 % 1021,4 hPa 0,0 mm S-SO 163 0,0 km/h (0 Bft)
17.05.2015 23:00 11,7 C 91 % 1021,2 hPa 0,0 mm S-SO 163 0,0 km/h (0 Bft)
17.05.2015 23:05 11,7 C 91 % 1021,2 hPa 0,0 mm S-SO 163 3,2 km/h (1 Bft)
17.05.2015 23:10 11,8 C 91 % 1021,2 hPa 0,0 mm S-SO 163 0,0 km/h (0 Bft)
17.05.2015 23:15 11,8 C 91 % 1021,2 hPa 0,0 mm S-SO 163 0,0 km/h (0 Bft)
17.05.2015 23:20 11,7 C 91 % 1021,2 hPa 0,0 mm S-SO 163 0,0 km/h (0 Bft)
17.05.2015 23:25 11,7 C 91 % 1021,1 hPa 0,0 mm S-SO 163 0,0 km/h (0 Bft)
17.05.2015 23:30 11,7 C 91 % 1021,2 hPa 0,0 mm S-SO 163 0,0 km/h (0 Bft)
17.05.2015 23:35 11,7 C 91 % 1021,2 hPa 0,0 mm S-SO 163 0,0 km/h (0 Bft)
17.05.2015 23:40 11,6 C 91 % 1021,1 hPa 0,0 mm S-SO 163 0,0 km/h (0 Bft)
17.05.2015 23:45 11,6 C 92 % 1021,1 hPa 0,0 mm S-SO 163 0,0 km/h (0 Bft)
17.05.2015 23:50 11,6 C 92 % 1021,0 hPa 0,0 mm S-SO 163 0,0 km/h (0 Bft)
17.05.2015 23:55 11,4 C 91 % 1020,9 hPa 0,0 mm S-SO 163 0,0 km/h (0 Bft)
_ Min-Zeit 23:55 15:20 23:55 - - - 00:00
Minimum _ 11,4 C 67 % 1020,9 hPa - - - 0,0 km/h (0 Bft)
_ Max-Zeit 15:20 23:45 12:15 07:50 - - 07:55
Maximum _ 17,3 C 92 % 1024,7 hPa 0,2 mm - - 17,7 km/h
W-NW (3 Bft)
Durchschnitt _ 13,8 C 81 % 1023,0 hPa #0,4 mm W - 4,6 km/h (1 Bft)